Time,TemperatureF,DewpointF,PressureIn,WindDirection,WindDirectionDegrees,WindSpeedMPH,WindSpeedGustMPH,Humidity,HourlyPrecipIn,Conditions,Clouds,dailyrainin,SoftwareType,DateUTC
2013-01-05 00:13:00,30.0,24.0,30.30,West,259,0.0,0.0,78,0.00,,,0.00,weatherlink.com 1.10,2013-01-05 08:13:00,
2013-01-05 00:28:00,29.4,24.0,30.30,West,259,0.0,0.0,79,0.00,,,0.00,weatherlink.com 1.10,2013-01-05 08:28:00,
2013-01-05 00:43:00,29.1,24.0,30.30,West,259,0.0,0.0,80,0.00,,,0.00,weatherlink.com 1.10,2013-01-05 08:43:00,
2013-01-05 00:58:00,28.7,24.0,30.30,West,259,0.0,0.0,81,0.00,,,0.00,weatherlink.com 1.10,2013-01-05 08:58:00,
2013-01-05 01:13:00,28.5,24.0,30.30,West,259,0.0,0.0,82,0.00,,,0.00,weatherlink.com 1.10,2013-01-05 09:13:00,
2013-01-05 01:28:00,28.4,24.0,30.30,West,259,0.0,0.0,82,0.00,,,0.00,weatherlink.com 1.10,2013-01-05 09:28:00,
2013-01-05 01:43:00,28.5,24.0,30.31,West,259,0.0,0.0,82,0.00,,,0.00,weatherlink.com 1.10,2013-01-05 09:43:00,
2013-01-05 01:58:00,28.3,24.0,30.31,West,259,0.0,0.0,82,0.00,,,0.00,weatherlink.com 1.10,2013-01-05 09:58:00,
2013-01-05 02:13:00,28.0,23.0,30.31,West,259,0.0,0.0,82,0.00,,,0.00,weatherlink.com 1.10,2013-01-05 10:13:00,
2013-01-05 02:28:00,27.6,23.0,30.32,West,259,0.0,0.0,83,0.00,,,0.00,weatherlink.com 1.10,2013-01-05 10:28:00,
2013-01-05 02:43:00,27.7,23.0,30.32,West,259,0.0,0.0,82,0.00,,,0.00,weatherlink.com 1.10,2013-01-05 10:43:00,
2013-01-05 02:58:00,27.4,23.0,30.32,West,259,0.0,0.0,83,0.00,,,0.00,weatherlink.com 1.10,2013-01-05 10:58:00,
2013-01-05 03:13:00,27.2,23.0,30.32,West,259,0.0,0.0,83,0.00,,,0.00,weatherlink.com 1.10,2013-01-05 11:13:00,
2013-01-05 03:28:00,27.5,23.0,30.32,WSW,258,0.0,0.0,83,0.00,,,0.00,weatherlink.com 1.10,2013-01-05 11:28:00,
2013-01-05 03:43:00,27.5,23.0,30.32,West,260,0.0,1.0,84,0.00,,,0.00,weatherlink.com 1.10,2013-01-05 11:43:00,
2013-01-05 03:58:00,27.6,23.0,30.32,West,259,0.0,0.0,82,0.00,,,0.00,weatherlink.com 1.10,2013-01-05 11:58:00,
2013-01-05 04:14:00,27.7,23.0,30.32,West,260,0.0,0.0,82,0.00,,,0.00,weatherlink.com 1.10,2013-01-05 12:14:00,
2013-01-05 04:29:00,27.6,23.0,30.32,West,259,0.0,0.0,82,0.00,,,0.00,weatherlink.com 1.10,2013-01-05 12:29:00,
2013-01-05 04:44:00,27.4,23.0,30.32,West,259,0.0,0.0,82,0.00,,,0.00,weatherlink.com 1.10,2013-01-05 12:44:00,
2013-01-05 04:59:00,26.9,22.0,30.33,West,259,0.0,0.0,83,0.00,,,0.00,weatherlink.com 1.10,2013-01-05 12:59:00,
2013-01-05 05:14:00,26.8,22.0,30.33,West,260,0.0,0.0,83,0.00,,,0.00,weatherlink.com 1.10,2013-01-05 13:14:00,
2013-01-05 05:29:00,26.7,22.0,30.33,West,260,0.0,0.0,83,0.00,,,0.00,weatherlink.com 1.10,2013-01-05 13:29:00,
2013-01-05 05:44:00,27.0,23.0,30.34,West,260,0.0,0.0,84,0.00,,,0.00,weatherlink.com 1.10,2013-01-05 13:44:00,
2013-01-05 05:59:00,26.9,22.0,30.34,West,259,0.0,0.0,83,0.00,,,0.00,weatherlink.com 1.10,2013-01-05 13:59:00,
2013-01-05 06:14:00,26.7,23.0,30.34,West,260,0.0,0.0,84,0.00,,,0.00,weatherlink.com 1.10,2013-01-05 14:14:00,
2013-01-05 06:29:00,26.8,23.0,30.34,West,260,0.0,0.0,85,0.00,,,0.00,weatherlink.com 1.10,2013-01-05 14:29:00,
2013-01-05 06:44:00,26.9,23.0,30.35,West,260,0.0,0.0,85,0.00,,,0.00,weatherlink.com 1.10,2013-01-05 14:44:00,
2013-01-05 06:59:00,26.8,23.0,30.34,West,260,0.0,0.0,84,0.00,,,0.00,weatherlink.com 1.10,2013-01-05 14:59:00,
2013-01-05 07:14:00,26.7,23.0,30.35,West,260,0.0,0.0,85,0.00,,,0.00,weatherlink.com 1.10,2013-01-05 15:14:00,
2013-01-05 07:29:00,26.6,23.0,30.35,West,259,0.0,0.0,86,0.00,,,0.00,weatherlink.com 1.10,2013-01-05 15:29:00,
2013-01-05 07:44:00,27.1,24.0,30.36,West,260,0.0,0.0,86,0.00,,,0.00,weatherlink.com 1.10,2013-01-05 15:44:00,
2013-01-05 07:59:00,27.7,24.0,30.36,West,260,0.0,0.0,86,0.00,,,0.00,weatherlink.com 1.10,2013-01-05 15:59:00,
2013-01-05 08:14:00,28.6,25.0,30.36,West,259,0.0,0.0,87,0.00,,,0.00,weatherlink.com 1.10,2013-01-05 16:14:00,
2013-01-05 08:29:00,29.5,26.0,30.35,West,259,0.0,0.0,85,0.00,,,0.00,weatherlink.com 1.10,2013-01-05 16:29:00,
2013-01-05 08:44:00,31.8,28.0,30.36,NE,51,0.0,0.0,84,0.00,,,0.00,weatherlink.com 1.10,2013-01-05 16:44:00,
2013-01-05 08:59:00,36.7,28.0,30.36,NE,53,1.0,2.0,71,0.00,,,0.00,weatherlink.com 1.10,2013-01-05 16:59:00,
2013-01-05 09:14:00,38.9,29.0,30.36,NE,52,0.0,0.0,69,0.00,,,0.00,weatherlink.com 1.10,2013-01-05 17:14:00,
2013-01-05 09:29:00,41.5,33.0,30.35,NE,53,0.0,1.0,72,0.00,,,0.00,weatherlink.com 1.10,2013-01-05 17:29:00,
2013-01-05 09:44:00,45.3,30.0,30.35,ENE,63,0.0,0.0,56,0.00,,,0.00,weatherlink.com 1.10,2013-01-05 17:44:00,
2013-01-05 09:59:00,50.1,29.0,30.35,WSW,245,1.0,2.0,44,0.00,,,0.00,weatherlink.com 1.10,2013-01-05 17:59:00,
2013-01-05 10:14:00,54.7,26.0,30.35,WSW,252,0.0,1.0,33,0.00,,,0.00,weatherlink.com 1.10,2013-01-05 18:14:00,
2013-01-05 10:30:00,57.4,23.0,30.34,SSW,205,0.0,2.0,27,0.00,,,0.00,weatherlink.com 1.10,2013-01-05 18:30:00,
2013-01-05 10:45:00,59.4,23.0,30.34,SSW,207,5.0,5.0,25,0.00,,,0.00,weatherlink.com 1.10,2013-01-05 18:45:00,
2013-01-05 11:00:00,60.8,23.0,30.33,SW,224,2.0,5.0,23,0.00,,,0.00,weatherlink.com 1.10,2013-01-05 19:00:00,
2013-01-05 11:15:00,61.9,21.0,30.32,West,263,1.0,5.0,21,0.00,,,0.00,weatherlink.com 1.10,2013-01-05 19:15:00,
2013-01-05 11:30:00,62.7,22.0,30.30,SSW,204,0.0,3.0,21,0.00,,,0.00,weatherlink.com 1.10,2013-01-05 19:30:00,
2013-01-05 11:45:00,63.6,24.0,30.29,WSW,244,0.0,3.0,22,0.00,,,0.00,weatherlink.com 1.10,2013-01-05 19:45:00,
2013-01-05 12:00:00,64.4,23.0,30.28,SW,226,0.0,2.0,21,0.00,,,0.00,weatherlink.com 1.10,2013-01-05 20:00:00,
2013-01-05 12:15:00,63.9,24.0,30.27,East,87,2.0,3.0,22,0.00,,,0.00,weatherlink.com 1.10,2013-01-05 20:15:00,
2013-01-05 12:30:00,65.2,22.0,30.26,WSW,245,1.0,6.0,19,0.00,,,0.00,weatherlink.com 1.10,2013-01-05 20:30:00,
2013-01-05 12:45:00,64.3,24.0,30.26,WSW,248,2.0,6.0,22,0.00,,,0.00,weatherlink.com 1.10,2013-01-05 20:45:00,
2013-01-05 13:00:00,62.9,27.0,30.26,West,264,2.0,6.0,26,0.00,,,0.00,weatherlink.com 1.10,2013-01-05 21:00:00,
2013-01-05 13:15:00,63.3,28.0,30.25,West,272,2.0,7.0,26,0.00,,,0.00,weatherlink.com 1.10,2013-01-05 21:15:00,
2013-01-05 13:30:00,62.7,27.0,30.25,WSW,239,4.0,8.0,26,0.00,,,0.00,weatherlink.com 1.10,2013-01-05 21:30:00,
2013-01-05 13:45:00,62.3,25.0,30.25,West,280,3.0,7.0,24,0.00,,,0.00,weatherlink.com 1.10,2013-01-05 21:45:00,
2013-01-05 14:00:00,62.3,26.0,30.24,West,271,3.0,7.0,25,0.00,,,0.00,weatherlink.com 1.10,2013-01-05 22:00:00,
2013-01-05 14:15:00,61.9,26.0,30.25,West,262,2.0,6.0,25,0.00,,,0.00,weatherlink.com 1.10,2013-01-05 22:15:00,
2013-01-05 14:30:00,61.6,26.0,30.25,SW,221,2.0,5.0,26,0.00,,,0.00,weatherlink.com 1.10,2013-01-05 22:30:00,
2013-01-05 14:45:00,61.3,27.0,30.24,WSW,239,3.0,4.0,27,0.00,,,0.00,weatherlink.com 1.10,2013-01-05 22:45:00,
2013-01-05 15:00:00,60.4,28.0,30.24,SW,232,4.0,5.0,29,0.00,,,0.00,weatherlink.com 1.10,2013-01-05 23:00:00,
2013-01-05 15:15:00,59.4,29.0,30.24,West,260,1.0,5.0,31,0.00,,,0.00,weatherlink.com 1.10,2013-01-05 23:15:00,
2013-01-05 15:30:00,59.8,29.0,30.24,West,274,2.0,3.0,31,0.00,,,0.00,weatherlink.com 1.10,2013-01-05 23:30:00,
2013-01-05 15:45:00,58.4,27.0,30.24,West,265,2.0,5.0,30,0.00,,,0.00,weatherlink.com 1.10,2013-01-05 23:45:00,
2013-01-05 16:00:00,57.8,31.0,30.24,West,266,0.0,0.0,36,0.00,,,0.00,weatherlink.com 1.10,2013-01-06 00:00:00,
2013-01-05 16:30:00,52.5,32.0,30.23,West,267,0.0,0.0,45,0.00,,,0.00,weatherlink.com 1.10,2013-01-06 00:30:00,
2013-01-05 16:45:00,50.8,33.0,30.23,West,267,0.0,0.0,50,0.00,,,0.00,weatherlink.com 1.10,2013-01-06 00:45:00,
2013-01-05 17:00:00,48.7,32.0,30.24,West,267,0.0,0.0,53,0.00,,,0.00,weatherlink.com 1.10,2013-01-06 01:00:00,
2013-01-05 17:15:00,46.8,31.0,30.24,West,267,0.0,0.0,55,0.00,,,0.00,weatherlink.com 1.10,2013-01-06 01:15:00,
2013-01-05 17:30:00,44.7,31.0,30.24,West,267,0.0,0.0,59,0.00,,,0.00,weatherlink.com 1.10,2013-01-06 01:30:00,
2013-01-05 17:45:00,43.2,31.0,30.24,West,266,0.0,0.0,63,0.00,,,0.00,weatherlink.com 1.10,2013-01-06 01:45:00,
2013-01-05 18:00:00,41.8,30.0,30.25,West,267,0.0,0.0,64,0.00,,,0.00,weatherlink.com 1.10,2013-01-06 02:00:00,
2013-01-05 18:15:00,41.0,30.0,30.24,West,266,0.0,0.0,66,0.00,,,0.00,weatherlink.com 1.10,2013-01-06 02:15:00,
2013-01-05 18:30:00,40.4,30.0,30.24,West,267,0.0,0.0,67,0.00,,,0.00,weatherlink.com 1.10,2013-01-06 02:30:00,
2013-01-05 18:45:00,40.3,30.0,30.24,West,267,0.0,0.0,68,0.00,,,0.00,weatherlink.com 1.10,2013-01-06 02:45:00,
2013-01-05 19:00:00,40.3,31.0,30.23,ENE,71,0.0,0.0,70,0.00,,,0.00,weatherlink.com 1.10,2013-01-06 03:00:00,
2013-01-05 19:15:00,40.8,32.0,30.24,ENE,70,0.0,2.0,70,0.00,,,0.00,weatherlink.com 1.10,2013-01-06 03:15:00,
2013-01-05 19:31:00,41.1,32.0,30.24,SSW,209,0.0,1.0,71,0.00,,,0.00,weatherlink.com 1.10,2013-01-06 03:31:00,
2013-01-05 19:46:00,40.8,32.0,30.25,SE,139,0.0,0.0,72,0.00,,,0.00,weatherlink.com 1.10,2013-01-06 03:46:00,
2013-01-05 20:01:00,40.4,33.0,30.25,East,90,0.0,1.0,74,0.00,,,0.00,weatherlink.com 1.10,2013-01-06 04:01:00,
2013-01-05 20:16:00,39.9,33.0,30.25,East,91,0.0,0.0,76,0.00,,,0.00,weatherlink.com 1.10,2013-01-06 04:16:00,
2013-01-05 20:31:00,40.3,34.0,30.25,East,90,0.0,0.0,77,0.00,,,0.00,weatherlink.com 1.10,2013-01-06 04:31:00,
2013-01-05 20:46:00,40.3,33.0,30.25,East,90,0.0,0.0,76,0.00,,,0.00,weatherlink.com 1.10,2013-01-06 04:46:00,
2013-01-05 21:01:00,39.7,33.0,30.25,East,90,0.0,0.0,78,0.00,,,0.00,weatherlink.com 1.10,2013-01-06 05:01:00,
2013-01-05 21:16:00,39.6,34.0,30.25,SSE,148,0.0,0.0,79,0.00,,,0.00,weatherlink.com 1.10,2013-01-06 05:16:00,
2013-01-05 21:31:00,39.5,34.0,30.26,ESE,120,0.0,1.0,79,0.00,,,0.00,weatherlink.com 1.10,2013-01-06 05:31:00,
2013-01-05 21:46:00,39.7,33.0,30.25,East,85,0.0,2.0,78,0.00,,,0.00,weatherlink.com 1.10,2013-01-06 05:46:00,
2013-01-05 22:01:00,40.8,33.0,30.26,ENE,74,0.0,0.0,75,0.00,,,0.00,weatherlink.com 1.10,2013-01-06 06:01:00,
2013-01-05 22:16:00,40.8,34.0,30.26,ENE,73,0.0,0.0,76,0.00,,,0.00,weatherlink.com 1.10,2013-01-06 06:16:00,
2013-01-05 22:31:00,40.7,34.0,30.25,ENE,74,0.0,0.0,76,0.00,,,0.00,weatherlink.com 1.10,2013-01-06 06:31:00,
2013-01-05 22:46:00,40.7,34.0,30.25,NE,53,0.0,0.0,76,0.00,,,0.00,weatherlink.com 1.10,2013-01-06 06:46:00,
2013-01-05 23:01:00,40.5,34.0,30.24,ENE,73,0.0,0.0,77,0.00,,,0.00,weatherlink.com 1.10,2013-01-06 07:01:00,
2013-01-05 23:16:00,40.1,34.0,30.25,ENE,74,0.0,0.0,78,0.00,,,0.00,weatherlink.com 1.10,2013-01-06 07:16:00,
2013-01-05 23:31:00,39.4,33.0,30.25,ENE,70,0.0,0.0,79,0.00,,,0.00,weatherlink.com 1.10,2013-01-06 07:31:00,
2013-01-05 23:46:00,39.3,34.0,30.25,ENE,70,0.0,0.0,80,0.00,,,0.00,weatherlink.com 1.10,2013-01-06 07:46:00,